This demonstration page uses our WeatherBlox Daily Observations layout. Learn more.

Left ArrowRight Arrow

Hourly Observations for November 23, 2018

Temp ( °F °C ) Dew Point ( °F °C ) Humidity (%) Winds ( mph kmh ) Pressure ( in mb ) Visibility ( mi km ) Precip ( " mm )
12:57 am 00:57 Clear 46 7.8 41 5 83 83 S 14 22 29.61 1003 10 16 0.00 0.00
1:57 am 01:57 Clear 47 8.3 42 5.6 83 83 S 13 20 29.59 1002 10 16 0.00 0.00
2:57 am 02:57 Partly Cloudy 45 7.2 41 5 86 86 S 8 13 29.59 1002 10 16 0.00 0.00
3:57 am 03:57 Mostly Cloudy 44 6.7 41 5 89 89 SSE 8 13 29.56 1001 10 16 0.00 0.00
4:57 am 04:57 Mostly Cloudy 44 6.7 41 5 89 89 S 8 13 29.55 1001 10 16 0.00 0.00
5:57 am 05:57 Mostly Cloudy 44 6.7 41 5 89 89 SSW 7 11 29.56 1001 10 16 0.00 0.00
6:57 am 06:57 Cloudy 43 6.1 41 5 93 93 SW 8 13 29.56 1001 10 16 0.00 0.00
7:57 am 07:57 Cloudy 44 6.7 41 5 89 89 WSW 8 13 29.56 1001 10 16 0.00 0.00
8:57 am 08:57 Mostly Cloudy 46 7.8 37 2.8 71 71 WNW 12 19 29.56 1001 10 16 0.00 0.00
9:57 am 09:57 Cloudy 50 10 35 1.7 57 57 NW 16 26 29.55 1001 10 16 0.00 0.00
10:57 am 10:57 Mostly Cloudy 55 12.8 32 0 42 42 NW 20 31 29.55 1001 10 16 0.00 0.00
11:57 am 11:57 Sunny 56 13.3 29 -1.7 36 36 NW 21 33 29.55 1001 10 16 0.00 0.00
12:57 pm 12:57 Sunny 60 15.6 27 -2.8 28 28 NW 26 43 29.53 1000 10 16 0.00 0.00
1:57 pm 13:57 Sunny 60 15.6 29 -1.7 31 31 NW 18 30 29.53 1000 10 16 0.00 0.00
2:57 pm 14:57 Sunny 61 16.1 29 -1.7 30 30 NNW 22 35 29.54 1000 10 16 0.00 0.00
3:57 pm 15:57 Sunny 60 15.6 28 -2.2 30 30 NNW 17 28 29.56 1001 10 16 0.00 0.00
4:57 pm 16:57 Mostly Sunny 57 13.9 29 -1.7 34 34 NW 12 19 29.58 1002 10 16 0.00 0.00
5:57 pm 17:57 Clear 47 8.3 28 -2.2 48 48 WNW 9 15 29.61 1003 10 16 0.00 0.00
6:57 pm 18:57 Clear 44 6.7 27 -2.8 51 51 WNW 7 11 29.62 1003 10 16 0.00 0.00
7:57 pm 19:57 Clear 46 7.8 27 -2.8 47 47 W 5 7 29.63 1003 10 16 0.00 0.00
8:57 pm 20:57 Partly Cloudy 40 4.4 26 -3.3 58 58 WNW 7 11 29.65 1004 10 16 0.00 0.00
9:57 pm 21:57 Clear 44 6.7 27 -2.8 51 51 WNW 12 19 29.67 1005 10 16 0.00 0.00
10:57 pm 22:57 Clear 39 3.9 28 -2.2 65 65 WNW 9 15 29.67 1005 10 16 0.00 0.00
11:57 pm 23:57 Clear 36 2.2 28 -2.2 73 73 WNW 10 17 29.68 1005 10 16 0.00 0.00

Powered by AerisWeather